Regional Weather Roundup
Issued by NWS Mt. Holly, NJ

Home | Current Version | Previous Version | Text Only | Print | Product List | Glossary On
Versions: 1 2 3 4 5 6 7 8 9 10 11 12 13 14 15 16 17 18 19 20 21 22 23 24 25 26 27 28 29 30 31 32 33 34 35 36 37 38 39 40 41 42 43 44 45 46 47 48 49 50
000
ASUS41 KPHI 020411
RWRPHI

REGIONAL WEATHER ROUNDUP
NATIONAL WEATHER SERVICE MOUNT HOLLY NJ
1100 PM EST SUN MAR 01 2015

NOTE:  "FAIR" INDICATES FEW OR NO CLOUDS BELOW 12,000 FEET WITH NO
SIGNIFICANT WEATHER AND/OR OBSTRUCTIONS TO VISIBILITY.

 * = STATION DOES NOT REPORT PRECIPITATION (E.G. RAIN, SNOW, ETC.)
        OR FOG.

NJZ015>026-020500-
SOUTHERN NEW JERSEY

CITY           SKY/WX    TMP DP  RH WIND       PRES   REMARKS
POMONA         CLOUDY    32  31  96 W5        30.20F FOG     WCI  27
RIO GRANDE*    CLOUDY    32  28  86 CALM      30.23F
MILLVILLE      CLOUDY    33  31  92 CALM      30.20F
WRIGHTSTOWN    CLOUDY    31  31  99 CALM      30.17F
MOUNT HOLLY    CLOUDY    31  30  96 CALM      30.20F FOG
TRENTON        CLOUDY    30  27  88 CALM      30.19F FOG

$$
NJZ001>014-020500-
NORTHERN NEW JERSEY

CITY           SKY/WX    TMP DP  RH WIND       PRES   REMARKS
SUSSEX         MIX PCPN  24  20  84 CALM      30.15F
ANDOVER*         N/A     22  20  92 CALM      30.15F
MORRISTOWN     CLOUDY    27  23  86 CALM      30.18F
NEWARK         LGT SNOW  27  25  92 CALM      30.19F FOG
TETERBORO      CLOUDY    26  21  81 CALM      30.18F
CALDWELL       CLOUDY    24  20  84 CALM      30.19F
SOMERVILLE     FRZ RAIN  25  22  88 CALM      30.18F FOG
ALLAIRE*       CLOUDY    32  27  80 CALM      30.18F
TOMS RIVER*    CLOUDY    32  30  93 CALM      30.19R

$$
PAZ043-044-047-054-055-060>062-066>071-020500-
EASTERN PENNSYLVANIA

CITY           SKY/WX    TMP DP  RH WIND       PRES   REMARKS
PHILADELPHIA   CLOUDY    31  29  92 SW6       30.21F FOG     WCI  25
NORTH PHILA    CLOUDY    33  28  81 CALM      30.22F HAZE
BLUE BELL      CLOUDY    32  32 100 CALM      30.18F
DOYLESTOWN     CLOUDY    26  26 100 CALM      30.17F
QUAKERTOWN*    CLOUDY    25  23  93 CALM      30.19F
POTTSTOWN      CLOUDY    27  27 100 NW3       30.20F FOG
LANCASTER      CLOUDY    30  29  96 CALM      30.17F FOG
COATESVILLE    CLOUDY    32  32 100 CALM      30.17F FOG
READING        MIX PCPN  25  22  88 NW3       30.18F FOG
ALLENTOWN      CLOUDY    25  21  85 CALM      30.18F FOG
MOUNT POCONO   LGT SNOW  24  21  88 W10       30.06F FOG     WCI  14
HAZLETON       LGT SNOW  27  25  93 CALM      30.12F
WILKES BARRE   LGT SNOW  24  21  88 W3        30.13S

$$
DEZALL-MDZ008-012-015-019-020-020500-
DELAWARE AND EASTERN MARYLAND

CITY           SKY/WX    TMP DP  RH WIND       PRES   REMARKS
WILMINGTON     CLOUDY    32  30  92 SW3       30.21F FOG
DOVER          CLOUDY    32  32 100 CALM      30.20F
GEORGETOWN     FOG       32  31  96 SW3       30.22S VSB 3/4
EASTON         CLOUDY    33  33 100 SW3       30.26F
PATUXENT       CLOUDY    31  29  92 SW3       30.24F
OCEAN CITY     CLOUDY    32  31  96 W3        30.24R FOG
WALLOPS ISLAND CLOUDY    32  32 100 NW5       30.25R WCI  27
SALISBURY      CLOUDY    35  32  88 W5        30.25R FOG     WCI  31

$$
PAZ001-021-NYZ056-072-MDZ011-DCZ001-020500-
OTHER NEARBY LOCATIONS

CITY           SKY/WX    TMP DP  RH WIND       PRES   REMARKS
HARRISBURG     CLOUDY    26  23  88 NW3       30.19F FOG
STATE COLLEGE  LGT SNOW  27  26  96 CALM      30.12S
WILLIAMSPORT   CLOUDY    25  22  88 CALM      30.16F
BINGHAMTON     CLOUDY    22  20  92 SW7       30.05F FOG     WCI  13
NEW YORK CITY  CLOUDY    28  22  78 NW3       30.20F
BALTIMORE      CLOUDY    32  30  92 W5        30.21F FOG     WCI  27
WASHINGTON DC  CLOUDY    34  30  85 SW5       30.24F FOG     WCI  30

$$


USA.gov is the U.S. government's official web portal to all federal, state and local government web resources and services.